Weather in Tres Lagoas

Brazil     20°47′41″S   51°40′50″W
В апреле 2022 года жителям России запретили посещать сайт meteo.paraplan.net по решению Генеральной прокуратуры. Аудитория сайта уменьшилась в 10 раз. Владельцы сайта не видят смысла в поддержке погодного сервера в таких условиях. Сайт будет закрыт в октябре.
temp.,
°C
wind,
m/s
gust,
m/s
humid.,
%
clouds,
%
prec.,
mm/h
press.,
hPa
HPBL,
m
30 september, fri
fri3000:00+20se3877100 0.0 1016337
03:00+18se378097 0.0 1016358
06:00+17sse367995 0.0 1017298
09:00+21se456699 0.0 1018558
12:00+26ese335449 0.0 1017886
15:00+27s325289 0.1 10141194
18:00+25s346527 0.0 1014153
21:00+22s3773100 0.0 1016207
1 october, sat
sat100:00+20sse3785100 0.4 1017282
03:00+19sse2492100 0.0 1016144
06:00+18sse2490100 0.0 1016125
09:00+23sse33695 0.0 1018511
12:00+29sse33534 0.0 10161252
15:00+30s324731 0.0 10131817
18:00+26ssw59680 0.0 1014467
21:00+23s49750 0.0 1016312
2 october, sun
sun200:00+22s39790 0.0 1015263
03:00+21sse22830 0.0 101442
06:00+20se22850 0.0 101540
09:00+25ese23630 0.0 1017659
12:00+30s22470 0.0 10151350
15:00+32ssw33410 0.0 10111707
18:00+29ssw36540 0.0 1011175
21:00+25s25674 0.0 1013111
3 october, mon
mon300:00+24s24720 0.0 101491
03:00+22s2375100 0.0 101284
06:00+22se2278100 0.1 101346
09:00+26e2260100 0.1 1013489
12:00+30ssw2247100 0.0 10111229
15:00+26wnw1370100 1.9 1011269
18:00+26ene226897 0.1 100963
21:00+23se3582100 0.8 1012188
4 october, tue
tue400:00+21e248651 0.1 1011131
03:00+20ene379210 0.9 1010276
06:00+19ese25921 0.3 1010141
09:00+25e33692 0.3 1012610
12:00+30n22502 0.0 10111405
15:00+33w254145 0.0 10072246
18:00+29s485476 0.0 1006367
21:00+25se277193 0.1 1009221